Wind_Speed
45 48 49 48 48 51 55 59 60 61 60 64 64 64 70 79 82 80 84 86 84 81 82 82 78 73 75 76 75 74 72 69 69 68 65 63 60 65 69 69 67 65 62
51 52 53 53 56 58 61 64 65 66 67 68 72 77 82 84 81 86 87 81 81 82 79 79 82 83 82 79 78 78 78 75 74 70 69 68 66 62 67 71 72 70 67
53 55 58 58 58 63 66 69 70 70 71 75 78 82 84 82 84 80 76 77 75 80 82 84 84 88 89 87 84 83 81 79 77 75 71 69 66 65 65 69 72 71 70
57 61 62 63 65 68 70 72 72 74 78 79 83 84 83 80 73 74 77 80 82 87 88 91 93 94 93 89 87 86 82 79 78 76 73 68 67 63 59 61 67 66 64
63 66 66 66 68 71 73 75 77 81 83 85 87 82 72 67 66 70 78 79 83 87 91 94 95 94 91 88 86 82 78 73 72 70 69 66 60 56 49 52 55 60 59
68 69 69 71 73 76 78 80 83 85 86 87 83 70 61 67 75 78 87 91 95 96 96 96 95 93 89 86 84 78 72 67 65 63 60 53 49 42 39 39 44 51 58
72 73 74 76 78 79 82 85 87 87 87 80 70 63 70 74 84 88 90 100 101 102 100 99 96 92 83 78 77 73 67 60 55 50 44 37 33 28 27 29 35 41 45
74 76 77 80 82 84 87 86 91 89 77 64 64 72 76 78 87 95 103 107 108 109 106 100 90 82 76 71 67 62 56 48 43 35 31 24 18 17 17 18 22 24 26
76 79 81 84 86 87 87 89 85 75 61 61 65 73 77 82 90 105 106 110 112 107 100 85 76 69 64 56 51 48 41 34 28 22 15 12 12 8 9 11 14 11 13
80 83 84 87 87 87 89 85 73 59 60 62 72 78 87 91 99 114 109 111 107 96 81 73 65 59 51 41 37 32 26 21 16 10 7 8 4 3 2 3 2 3 6
85 86 90 91 89 92 85 71 63 64 69 67 77 85 93 92 109 108 109 106 89 74 68 64 58 53 44 32 29 25 18 12 10 9 7 8 5 5 7 5 2 1 8
87 91 90 91 90 81 68 57 57 63 76 76 77 90 94 96 106 111 111 95 77 66 58 53 48 43 34 26 21 17 14 14 13 10 7 13 11 6 6 7 18 12 10
92 88 91 86 73 69 56 59 63 72 80 83 81 89 92 97 107 120 107 85 73 62 52 44 38 29 23 19 13 11 18 18 17 11 10 17 8 9 9 5 10 4 8
90 83 74 67 64 57 61 65 71 73 79 84 80 89 90 100 106 118 100 80 71 63 53 41 30 19 14 11 9 15 20 16 16 12 12 13 11 10 11 6 6 10 14
78 59 59 53 58 57 62 68 70 75 79 78 83 96 98 105 109 112 100 79 70 62 52 36 27 15 7 5 13 17 21 22 18 14 15 7 10 8 12 8 7 15 16
49 49 52 56 57 62 67 70 73 79 80 90 95 92 106 106 110 112 109 79 66 59 48 33 22 14 8 12 15 19 21 20 16 17 15 9 9 10 7 7 6 6 12
52 54 55 56 65 68 69 72 79 82 86 90 95 96 102 105 102 113 108 79 64 56 45 31 21 15 14 14 16 19 21 21 20 17 16 8 10 11 10 9 7 2 7
50 50 54 60 69 66 70 79 83 82 81 83 92 92 97 106 99 113 112 79 63 53 45 30 18 17 13 16 16 19 22 23 23 19 16 9 12 12 11 11 11 15 13
49 51 53 61 69 73 76 78 78 78 80 85 89 90 95 107 98 112 113 84 63 52 42 33 23 12 13 20 17 22 25 26 27 23 19 14 12 15 15 12 12 9 9
56 59 62 67 67 69 73 76 74 78 83 88 92 94 95 101 100 114 116 93 63 50 44 33 25 19 16 23 21 26 29 30 29 33 25 20 17 17 18 17 15 12 12
62 64 70 74 68 72 79 78 77 81 85 93 95 94 100 100 102 115 107 87 60 46 42 36 26 21 19 24 25 27 32 34 35 37 35 27 23 21 23 21 21 20 19
71 75 72 73 77 81 87 86 85 88 89 95 94 101 103 95 107 112 106 78 57 42 40 35 30 22 20 25 30 31 33 38 40 39 38 39 33 30 27 26 22 22 21
71 75 76 83 78 81 85 88 87 86 90 96 96 107 101 99 111 111 99 74 55 41 37 36 31 27 22 22 27 36 39 38 42 42 41 41 42 40 36 34 32 27 28
78 78 75 79 83 86 86 87 84 89 90 96 98 102 96 105 114 113 101 71 55 40 35 35 33 30 27 25 25 27 36 43 43 42 45 48 47 49 47 43 40 36 32
82 82 84 88 91 86 89 90 86 91 96 96 102 104 100 111 121 115 91 67 52 40 35 34 34 31 30 30 28 28 29 33 38 44 46 45 51 53 54 54 50 46 43
87 83 86 92 94 90 94 90 91 98 101 105 110 109 111 113 119 111 77 61 49 40 35 35 35 34 33 31 31 32 31 30 31 33 35 43 50 52 56 57 60 58 54
Wind_Direction
321 320 320 320 319 321 321 321 322 323 320 319 315 313 314 316 315 314 312 309 305 304 303 304 303 303 305 304 302 299 295 294 291 289 288 285 282 280 279 277 275 271 267
319 319 320 320 319 318 319 320 321 322 319 319 319 317 316 316 314 311 310 307 305 306 306 306 308 308 307 306 304 299 297 295 295 294 292 289 283 273 273 273 271 268 263
317 317 317 315 315 316 319 320 321 320 319 318 318 316 316 314 310 312 313 313 307 305 306 306 308 309 307 306 304 300 298 297 297 295 292 286 279 274 269 267 266 264 264
314 315 316 315 315 317 318 319 320 318 318 318 318 317 314 315 313 317 317 313 309 308 305 304 305 306 305 303 301 298 297 297 296 296 293 287 284 279 273 267 266 263 261
313 314 314 313 315 316 317 319 318 318 319 318 318 316 315 317 320 321 321 314 308 307 306 306 306 304 302 300 297 295 295 295 295 294 291 289 287 284 276 267 261 260 257
312 312 313 314 316 316 318 318 318 319 319 321 317 316 314 315 317 317 318 315 311 308 308 308 307 304 300 298 296 294 294 295 296 294 292 294 290 286 279 271 264 258 254
309 312 313 315 316 317 317 318 319 319 318 318 319 315 317 314 315 316 316 316 313 313 312 311 307 303 301 298 296 296 297 297 295 295 293 289 285 283 271 261 258 256 258
310 312 313 314 316 316 318 319 320 319 318 318 319 319 319 318 325 321 320 316 315 316 315 313 308 304 301 299 300 298 297 296 293 288 286 287 285 276 272 265 266 267 262
311 311 312 313 315 317 316 318 319 317 317 323 325 326 323 323 328 325 322 318 318 317 315 311 307 304 301 301 298 292 289 283 280 275 276 284 287 293 292 298 307 303 286
308 310 311 312 314 315 316 318 317 313 318 322 323 324 325 325 324 326 322 322 323 320 315 311 306 301 299 298 291 286 279 272 262 257 269 281 226 308 278 304 24 18 288
307 308 308 311 313 313 317 315 315 315 316 312 321 326 328 328 326 330 326 325 324 320 314 309 304 300 301 292 284 280 271 242 224 208 228 236 186 210 214 247 186 239 26
304 306 309 311 312 315 313 312 321 320 323 325 320 325 331 335 335 336 329 330 328 325 319 312 306 300 297 283 272 261 224 207 196 205 226 192 203 201 196 26 337 298 238
302 305 307 309 309 310 307 310 314 320 327 327 327 331 331 333 336 341 334 333 333 333 332 327 318 310 293 283 262 224 192 195 192 188 194 192 199 170 135 358 251 324 304
301 304 304 304 304 305 307 313 318 325 328 327 333 337 334 338 341 342 338 337 340 341 343 342 335 318 296 278 230 198 199 188 173 185 198 191 198 184 182 239 273 273 274
301 299 294 301 304 306 312 317 319 323 321 325 326 337 338 341 346 343 345 341 342 344 345 347 345 331 311 232 215 201 194 181 179 201 178 182 209 196 201 226 258 273 297
296 295 296 303 303 307 314 321 316 318 316 322 325 329 334 338 345 345 347 342 344 345 342 344 343 323 257 237 215 198 194 183 190 197 185 214 204 205 236 255 263 284 313
296 301 304 301 305 315 315 313 315 315 320 319 320 326 328 330 343 346 350 344 342 344 340 339 339 317 304 237 219 200 197 196 203 200 203 200 229 213 249 241 272 242 327
299 300 300 304 305 308 306 308 313 315 323 329 327 325 328 336 338 345 349 346 341 341 340 333 334 332 276 243 231 201 200 215 208 199 193 205 231 227 226 245 248 276 275
293 293 291 293 302 303 307 311 315 318 329 332 332 327 332 333 337 340 347 346 340 336 338 330 320 308 261 249 237 214 214 222 212 207 201 209 218 227 230 220 242 260 273
293 296 299 304 307 309 309 313 316 326 328 329 329 333 332 336 338 338 343 344 339 333 333 331 320 304 251 239 243 225 225 226 232 222 215 206 218 234 234 239 232 239 253
291 294 299 304 303 311 312 315 319 326 329 329 330 330 332 334 335 338 340 342 338 330 327 329 323 303 275 244 241 233 229 228 233 231 224 216 214 224 230 233 237 236 243
294 296 296 307 306 307 312 312 318 322 324 325 329 328 330 333 334 340 341 340 336 327 322 322 324 313 290 257 248 246 242 233 232 234 235 227 218 218 218 223 231 231 232
294 300 300 306 305 308 314 312 312 319 321 323 326 326 328 326 330 337 340 336 332 325 319 316 316 316 302 284 265 246 248 248 240 236 232 232 231 223 221 220 221 222 235
299 300 304 305 305 309 312 312 311 316 318 323 326 325 324 325 331 335 337 333 328 320 315 312 310 309 309 301 285 270 257 253 251 247 242 238 234 230 227 222 223 220 218
296 298 301 304 310 312 314 312 310 311 316 320 321 321 319 324 329 331 331 330 325 316 311 310 309 307 304 303 301 292 282 272 265 257 251 247 242 238 234 229 225 223 221
297 298 298 303 306 306 310 306 305 304 310 317 319 320 319 322 325 329 328 327 323 314 309 310 310 309 305 300 295 294 293 289 281 274 267 257 246 243 243 239 230 226 225
Height
10971 10966 10962 10958 10954 10949 10944 10939 10933 10926 10918 10909 10902 10894 10886 10876 10864 10852 10841 10831 10819 10810 10797 10789 10781 10771 10762 10750 10743 10734 10726 10721 10719 10712 10707 10703 10702 10692 10682 10680 10680 10683 10687
10962 10958 10954 10950 10944 10940 10934 10928 10920 10913 10905 10896 10887 10877 10866 10856 10846 10832 10822 10809 10798 10788 10776 10766 10755 10744 10735 10727 10718 10708 10699 10692 10690 10690 10682 10676 10672 10670 10663 10658 10655 10655 10662
10954 10949 10944 10941 10937 10931 10923 10915 10908 10900 10891 10883 10874 10863 10851 10839 10827 10813 10803 10790 10776 10765 10753 10742 10731 10720 10708 10698 10689 10680 10672 10666 10662 10659 10655 10647 10643 10641 10641 10636 10632 10633 10637
10946 10941 10937 10931 10925 10917 10910 10902 10895 10887 10878 10867 10856 10845 10833 10819 10807 10795 10784 10771 10758 10745 10731 10718 10706 10693 10684 10674 10664 10653 10647 10642 10635 10629 10623 10618 10614 10613 10615 10614 10607 10610 10614
10938 10933 10927 10920 10914 10906 10898 10891 10881 10872 10861 10851 10839 10828 10814 10802 10791 10779 10767 10754 10739 10723 10709 10694 10681 10669 10657 10649 10638 10629 10624 10619 10613 10607 10598 10592 10588 10585 10589 10587 10588 10586 10591
10929 10922 10916 10908 10902 10894 10886 10877 10867 10857 10846 10835 10822 10810 10801 10788 10778 10764 10751 10734 10717 10702 10687 10671 10655 10641 10632 10623 10611 10603 10600 10598 10591 10583 10576 10572 10566 10567 10566 10568 10568 10569 10571
10916 10910 10903 10895 10888 10880 10871 10863 10853 10842 10830 10818 10807 10798 10792 10775 10763 10747 10730 10711 10690 10674 10660 10643 10626 10612 10603 10593 10581 10576 10573 10573 10569 10563 10560 10560 10557 10557 10555 10554 10553 10554 10556
10905 10897 10890 10882 10875 10866 10857 10845 10836 10824 10814 10804 10795 10786 10774 10761 10744 10724 10705 10684 10662 10642 10625 10609 10592 10579 10571 10565 10559 10552 10552 10551 10550 10552 10550 10551 10550 10548 10547 10547 10546 10545 10549
10892 10884 10877 10870 10861 10852 10841 10833 10822 10812 10801 10794 10784 10771 10755 10742 10723 10704 10678 10655 10633 10611 10591 10576 10564 10554 10549 10545 10542 10538 10539 10540 10541 10542 10543 10544 10542 10543 10543 10541 10541 10542 10544
10878 10871 10864 10857 10846 10837 10827 10818 10807 10799 10789 10780 10770 10757 10741 10723 10703 10683 10653 10628 10604 10583 10564 10551 10543 10536 10535 10533 10528 10528 10529 10530 10532 10534 10537 10538 10538 10540 10540 10541 10541 10540 10540
10863 10857 10848 10841 10833 10823 10814 10803 10796 10787 10777 10767 10756 10743 10725 10703 10680 10656 10633 10613 10589 10567 10548 10533 10523 10517 10518 10517 10515 10517 10519 10521 10525 10530 10532 10535 10537 10537 10538 10539 10539 10539 10539
10850 10842 10835 10826 10818 10809 10800 10791 10782 10774 10766 10753 10739 10725 10709 10688 10665 10638 10611 10590 10571 10553 10535 10520 10510 10505 10505 10504 10505 10509 10512 10517 10522 10527 10531 10533 10535 10535 10537 10538 10538 10538 10535
10836 10829 10821 10812 10803 10796 10787 10779 10771 10762 10751 10739 10726 10714 10696 10677 10653 10627 10595 10575 10556 10537 10521 10508 10499 10495 10494 10496 10498 10502 10507 10513 10519 10525 10527 10530 10532 10533 10534 10535 10535 10535 10533
10822 10815 10807 10799 10793 10785 10777 10769 10760 10749 10740 10729 10717 10702 10685 10666 10638 10613 10585 10565 10546 10529 10515 10504 10497 10492 10491 10493 10496 10500 10505 10513 10520 10523 10525 10528 10528 10530 10531 10533 10533 10532 10531
10805 10799 10793 10788 10782 10774 10768 10758 10748 10740 10729 10718 10705 10688 10671 10654 10628 10606 10577 10558 10542 10527 10515 10506 10500 10495 10493 10494 10496 10500 10506 10513 10517 10520 10523 10524 10525 10528 10529 10530 10531 10530 10528
10791 10786 10783 10778 10770 10764 10755 10745 10739 10729 10718 10706 10692 10678 10663 10647 10623 10598 10572 10555 10541 10529 10518 10509 10503 10499 10496 10494 10497 10501 10507 10513 10516 10518 10520 10522 10523 10525 10526 10527 10526 10527 10525
10781 10776 10771 10765 10759 10749 10744 10738 10730 10716 10709 10699 10683 10668 10654 10637 10615 10596 10573 10553 10540 10530 10520 10510 10505 10502 10500 10499 10500 10503 10508 10512 10515 10517 10519 10521 10522 10523 10524 10523 10524 10524 10522
10770 10765 10760 10753 10747 10742 10735 10727 10719 10711 10702 10687 10672 10659 10644 10628 10606 10590 10570 10551 10539 10529 10520 10512 10505 10503 10502 10500 10502 10505 10509 10510 10513 10515 10516 10518 10520 10520 10520 10521 10521 10521 10520
10757 10754 10749 10744 10737 10730 10722 10716 10706 10697 10684 10674 10662 10646 10631 10618 10598 10584 10568 10549 10536 10528 10519 10511 10506 10500 10501 10501 10502 10504 10506 10507 10509 10511 10512 10513 10515 10517 10516 10517 10518 10518 10517
10744 10740 10736 10731 10724 10717 10710 10702 10691 10681 10671 10660 10648 10634 10620 10608 10591 10577 10558 10545 10532 10523 10517 10510 10504 10500 10496 10497 10499 10500 10502 10502 10503 10506 10507 10508 10509 10511 10512 10512 10513 10513 10513
10732 10726 10722 10716 10709 10702 10695 10686 10677 10667 10656 10647 10633 10618 10609 10594 10580 10568 10551 10537 10525 10518 10513 10506 10500 10495 10492 10491 10492 10493 10494 10495 10495 10497 10500 10501 10502 10504 10506 10506 10506 10507 10508
10719 10714 10707 10702 10696 10688 10679 10670 10662 10652 10642 10632 10619 10608 10597 10584 10572 10556 10540 10526 10517 10510 10507 10502 10496 10491 10487 10485 10485 10485 10485 10485 10485 10487 10489 10492 10493 10494 10497 10498 10500 10501 10502
10704 10698 10693 10687 10680 10673 10664 10655 10648 10640 10630 10620 10607 10595 10584 10572 10560 10546 10533 10518 10508 10501 10498 10494 10490 10485 10481 10478 10475 10474 10474 10474 10475 10475 10476 10478 10481 10483 10485 10488 10490 10491 10494
10687 10681 10674 10669 10664 10657 10649 10641 10633 10625 10615 10604 10594 10583 10572 10562 10549 10535 10523 10509 10500 10493 10489 10485 10481 10477 10473 10469 10466 10464 10463 10462 10462 10463 10464 10465 10467 10469 10472 10475 10478 10481 10482
10671 10666 10658 10650 10645 10640 10632 10624 10616 10608 10599 10590 10582 10569 10560 10548 10535 10525 10512 10500 10490 10483 10479 10475 10471 10468 10464 10459 10456 10453 10451 10449 10448 10448 10449 10450 10452 10454 10457 10459 10463 10467 10470
10654 10647 10641 10636 10628 10622 10615 10607 10601 10592 10584 10575 10566 10554 10544 10534 10523 10510 10497 10488 10480 10474 10470 10466 10462 10457 10453 10450 10446 10442 10440 10438 10435 10434 10433 10433 10435 10437 10440 10442 10446 10450 10454